sat.trackr.live / text

‹ back to catalog

O3B MPOWER F7

NORAD 62362 · 2024-244A

PAYLOAD ACTIVE UNKNOWN

§ Identity

Operator
Country
O3B
Launch date
2024-12-17
Launch site
AFETR
Launch vehicle
Mass (kg)
RCS (m²)

Purposes: comms

External: N2YO · Heavens-Above · Gunter

§ Orbital elements

Epoch: 2026-05-24T11:43:27.933600Z

Period
287.93 min
Inclination
0.0699°
Eccentricity
0.0006061
Mean motion
5.00115178 rev/d
Perigee alt
8,057.1 km
Apogee alt
8,074.7 km
Semi-major
14,444.0 km
B*
0.0000e+0
RAAN
353.0768°
Arg perigee
67.3363°
Mean anomaly
299.6466°
Rev number
2,534

§ Raw data

O3B MPOWER F71 62362U 24244A   26144.48851775 -.00000024  00000+0  00000+0 0  99922 62362   0.0699 353.0768 0006061  67.3363 299.6466  5.00115178 25342

JSON: /api/v1/satellites/62362 · /tle

For live sub-satellite position, see the globe view (requires WebGL).

§ Visibility from observer

Set your observer location to see the next 7 days of passes ≥ 10°. The values pass through the URL so the page stays shareable.

No JS? Fill the form by hand. The geolocation button needs JavaScript.